Location: Hradec Kralove
(50.2170°N, 15.8330°E)
Time: 18:25:30
(UTC+01:00)

S-56A Canister/Altair - Visible Passes

Search period start: 30 January 2023 00:00
Search period end: 09 February 2023 00:00
Orbit: 639 x 2493 km, 38.9° (Epoch: 29 January)

Date Brightness Start Highest point End Pass type
(mag) Time Alt. Az. Time Alt. Az. Time Alt. Az.
30 Jan 11.6 19:10:38 10° SW 19:13:04 11° SW 19:15:40 10° SSW visible
31 Jan 11.6 18:36:57 10° SW 18:40:08 12° SW 18:43:40 10° SSW visible
01 Feb 11.6 18:03:41 10° SW 18:07:15 13° SSW 18:11:17 10° S visible
02 Feb 11.5 17:30:39 10° WSW 17:34:23 13° SSW 17:38:40 10° S visible
